GSAT-7A

Last updated on Jan. 17, 2021, 6:29 a.m. UTC

1 43864U 18105A   21016.81368910  .00000022  00000-0  00000-0 0  9990
2 43864   0.0803 275.2419 0001619 353.2250 203.6524  1.00273105  7643
UTC
Height (km)
Latitude
Longitude
Inclination
Orbital Period
UTC large
Height (km)
Speed (km/s)
/
Latitude / Longitude
Inclination (degrees)
Orbital Period (minutes)
Azimuth
Elevation
Range (km)
Doppler Factor
iOS Compass Heading
iOS Angle

Next 30 passes for location: Hong Kong

Rise time Rise Azimuth (degrees) Set time Set Azimuth (degrees) Duration Max altitude (degrees)

No matching passes for this satellites